Regional Weather Roundup
Issued by NWS

Home | Current Version | Previous Version | Text Only | Print | Product List | Glossary Off
Versions: 1 2 3 4 5 6 7 8 9 10 11 12 13 14 15 16 17 18 19 20 21 22 23 24 25 26 27 28 29 30 31 32 33 34 35 36 37 38 39 40 41 42 43 44 45 46 47 48 49 50

000
ASUS43 KMKX 221021
RWRWI

WISCONSIN REGIONAL WEATHER ROUNDUP
NATIONAL WEATHER SERVICE MILWAUKEE/SULLIVAN WI
500 AM CDT MON SEP 22 2014

NOTE: "FAIR" INDICATES FEW OR NO CLOUDS BELOW 12,000 FEET WITH NO
SIGNIFICANT WEATHER AND/OR OBSTRUCTIONS TO VISIBILITY.

WIZ001-002-006>008-014>016-023>028-221100-
NORTHWEST WISCONSIN

CITY           SKY/WX    TMP DP  RH WIND       PRES   REMARKS
SUPERIOR ARPT  CLEAR     43  43  99 SW3       30.19S
ASHLAND        MOCLDY    47  44  90 SW7       30.18R
HAYWARD        MOCLDY    39  38  96 CALM      30.21R
SIREN          CLEAR     40  39  95 CALM      30.22R
RICE LAKE      CLEAR     41  40  97 CALM      30.22F
LADYSMITH      CLEAR     38  38  97 CALM      30.22S
EAU CLAIRE     CLEAR     43  42  97 SW3       30.21S
MENOMONIE      SUNNY     46  45  95 CALM      30.23R
NEW RICHMOND     N/A     42  42 100 CALM      30.22F
OSCEOLA        FOG       42  42 100 CALM      30.25S VSB 3/4
$$

WIZ003>005-009-010-017-018-221100-
NORTH CENTRAL WISCONSIN

CITY           SKY/WX    TMP DP  RH WIND       PRES   REMARKS
WOODRUFF       CLEAR     37  35  93 CALM      30.18R
RHINELANDER    CLEAR     37  36  96 W6        30.18S WCI  32
EAGLE RIVER    FOG       32  32 100 CALM      30.16S VSB 1/2
LAND O LAKES   CLEAR     31  31 100 CALM      30.17R
PHILLIPS       CLEAR     36  36 100 CALM      30.20R FOG
TOMAHAWK       CLEAR     32  32  99 CALM      30.20R
MEDFORD        CLEAR     38  38  97 CALM      30.20S
MERRILL        CLEAR     34  33  99 CALM      30.20R
$$

WIZ029-030-035-036-043>047-221100-
CENTRAL WISCONSIN

CITY           SKY/WX    TMP DP  RH WIND       PRES   REMARKS
WAUSAU         CLEAR     42  39  89 NW7       30.19S
MOSINEE        CLEAR     36  36 100 W3        30.22R
MARSHFIELD     CLEAR     43  40  89 W7        30.21R
STEVENS POINT  CLEAR     33  32  97 CALM      30.21S
WAUPACA        CLEAR     39  38  95 CALM      30.21R
WAUTOMA        CLEAR     36  35  96 CALM      30.22R
WISC RAPIDS    CLEAR     39  38  96 CALM      30.23R
CAMP DOUGLAS   CLEAR     32  32 100 CALM      30.23R
$$

WIZ011>013-019>022-031-037>040-048>050-221100-
NORTHEAST WISCONSIN

CITY           SKY/WX    TMP DP  RH WIND       PRES   REMARKS
ANTIGO         CLEAR     36  36  99 CALM      30.20R
STURGEON BAY   CLEAR     39  36  87 SW3       30.19R
GREEN BAY      CLEAR     39  38  96 W3        30.20R
MANITOWOC      CLEAR     39  39 100 CALM      30.21R
APPLETON       CLEAR     37  37 100 W7        30.21R WCI  32
CLINTONVILLE   CLEAR     36  34  93 CALM      30.20S
OSHKOSH        CLEAR     41  39  93 W3        30.21R
$$

WIZ032>034-041-042-053>061-221100-
SOUTHWEST WISCONSIN

CITY           SKY/WX    TMP DP  RH WIND       PRES   REMARKS
LA CROSSE      MOCLDY    50  48  93 S8        30.23S FOG
SPARTA         CLEAR     34  34 100 CALM      30.25R
VIROQUA        FAIR      43  43 100 W3        30.24R
BOSCOBEL       FOG       45  44  97 S3        30.26R VSB 1/4
PRAIRIE DU CHI FOG       46  45  95 CALM      30.26R VSB 1/4
PLATTEVILLE    FAIR      41  40  93 CALM      30.25R
$$

WIZ056-057-062-063-064-067-068-221100-
SOUTH CENTRAL WISCONSIN

CITY           SKY/WX    TMP DP  RH WIND       PRES   REMARKS
BARABOO/DELLS  CLEAR     38  37  94 CALM      30.23R
LONE ROCK      MOCLDY    43  38  82 CALM      30.25R
WATERTOWN      CLEAR     37  37 100 CALM      30.21R
MADISON        CLEAR     41  37  86 CALM      30.23R
MIDDLETON      FAIR      39  39  99 CALM      30.24R
MONROE         CLEAR     46  41  81 N3        30.22S
JANESVILLE     CLEAR     39  37  93 CALM      30.21S
$$

WIZ051-052-058>065-066-070>072-221100-
SOUTHEAST WISCONSIN

CITY           SKY/WX    TMP DP  RH WIND       PRES   REMARKS
MILWAUKEE      CLEAR     44  38  79 NW6       30.21R
WAUKESHA       CLEAR     37  36  93 W3        30.22R
MILWAUKEE/TIMM CLEAR     39  36  87 CALM      30.22R
RACINE         CLEAR     43  39  86 NW7       30.22R
BURLINGTON     CLEAR     35  35 100 CALM      30.22R FOG
KENOSHA        CLEAR     42  39  89 NW6       30.21R
FOND DU LAC    CLEAR     38  36  92 CALM      30.21R
SHEBOYGAN      CLEAR     37  35  92 CALM      30.20R
WEST BEND      CLEAR     36  34  93 CALM      30.20S
JUNEAU         CLEAR     38  38  99 CALM      30.23R
$$

LSZ147-162-221100-
LAKE SUPERIOR

STATION/POSITION TIME  TEMP    WIND        PRES    WAVE
                       AIR SEA DIR/SP/G            HT/PER
                 (UTC) (F)     (DEG/KT/KT) (MB)    (FT/S)
W MID LAKE BUOY  0950   50 46  240/ 12/ 14 1020.4R   1/ 5
DEVILS ISLAND    1000   52     240/ 13/ 15 1021.5R
PORT WING        0900   50     190/  5/  6 1021.7R
SAXON HARBOR     0900   49     190/  5/  8 1021.3R
$$

LMZ867-665-643>646-221100-
LAKE MICHIGAN

STATION/POSITION TIME  TEMP    WIND        PRES    WAVE
                       AIR SEA DIR/SP/G            HT/PER
                 (UTC) (F)     (DEG/KT/KT) (MB)    (FT/S)
N MID LAKE BUOY  0950   48 57  350/  8/ 10 1020.9R   2/ 4
NORTHPORT PIER   0900   49     310/  6/ 10 1021.0R
KEWAUNEE LAKESHO 1000   39     300/  5/  5 1021.3R
SHEBOYGAN LAKESH 1000   44 52  290/  7/  7 1023.3R
PORT WASHINGTON  0940   43     300/  6/  7 1023.4R
ATWATER BUOY     1000   49     300/ 10/ 12 1023.7R
MILWAUKEE LAKESH 1000   47     310/  6/  8   N/A
S MID LAKE BUOY  0950   53 61  340/ 12/ 16 1022.1R   6/ 8
KENOSHA   LAKESH 1000   46     310/  9/ 12 1022.7R
$$

TC  - TEMPERATURE IN CELSIUS
VSB - VISIBILITY IN STATUTE MILES
WCI - WIND CHILL INDEX
HX  - HEAT INDEX




USA.gov is the U.S. government's official web portal to all federal, state and local government web resources and services.